Location: Betzi
(47.2343°N, 9.5260°E)
Time: 16:50:07
(UTC+00:00)

Cosmos 2369 Rocket - Pass Details

Date: 27 May 2022
Orbit: 830 x 851 km, 71.0° (Epoch: 06 July)

Event Time Altitude Azimuth Distance (km) Brightness Sun altitude
Rises 01:35:34 0° 333° (NNW) 3,385 5.8 -14.9°
Reaches altitude 10° 01:38:01 10° 335° (NNW) 2,447 5.0 -14.7°
Maximum altitude 01:43:38 78° 62° (ENE) 853 2.3 -14.2°
Drops below altitude 10° 01:49:13 10° 149° (SSE) 2,432 4.4 -13.6°
Sets 01:51:39 0° 151° (SSE) 3,364 5.1 -13.4°
